Current weather by "City, St" or "zip code"  
 
Advertise Here

Current Conditions: Oklahoma City, Will Rogers World Airport, OK

A Few Clouds


86.0 F

Last Updated on Jun 18 2021, 7:52 pm CDT
Humidity: 51%
Wind Speed: S 10.4 mph
Barometer 29.88 in
Dewpoint: 66.0 F
Visibility: 10.00 mi
Precip: --
Heat Index: 88 F
Wind Chill: NA
Current conditions at:

Oklahoma City, Will Rogers World Airport, OK (KOKC)

Lat: 35.38861 Lon: 97.60028

Local Radar Image active severe weather and emergency alerts image image weather storm and storm spotter reports image weather observation monitoring service image
Local
Radar
Active
Alerts
Storm Reports Obs
Monitoring

Sign-up For Email & Text Message Weather Alert Notification Services


Advertise Here

Observation History for Oklahoma City, Will Rogers World Airport, OK


Time Wind
(mph)
Vis
(mi)
Weather Precip (in) Temperature (F) Relative
Humidity
Wind
Chill
(F)
Heat
Index
(F)
Pressure
Air Dwpt altimeter
(in)
sea level
(mb)
Rmks
7:52 pm CDT S 10.4 10.00 A Few Clouds -- 86.0 66.0 51% NA 88 29.88 1010.0
6:52 pm CDT S 13.8 10.00 A Few Clouds -- 90.0 66.9 47% NA 93 29.87 1009.9
5:52 pm CDT S 16.1 10.00 A Few Clouds -- 91.0 64.9 42% NA 93 29.87 1009.9
3:52 pm CDT SW 18.4 G 23.0 10.00 A Few Clouds -- 93.0 64.0 38% NA 95 29.89 1010.5
2:52 pm CDT S 17.3 G 23.0 10.00 A Few Clouds -- 93.0 64.0 38% NA 95 29.90 1010.9
1:52 pm CDT S 13.8 10.00 A Few Clouds -- 93.0 64.9 40% NA 95 29.92 1011.5
12:52 pm CDT S 13.8 10.00 A Few Clouds -- 91.0 64.9 42% NA 93 29.93 1011.9
11:52 am CDT SW 13.8 10.00 A Few Clouds -- 90.0 64.9 44% NA 92 29.95 1012.6
10:52 am CDT SW 16.1 G 25.3 10.00 A Few Clouds -- 87.0 64.9 48% NA 89 29.95 1012.5
9:52 am CDT S 15.0 10.00 Fair -- 84.0 68.0 59% NA 87 29.96 1012.9
8:52 am CDT SW 12.7 10.00 Fair -- 80.0 66.9 64% NA 82 29.96 1013.0
7:52 am CDT SW 8.1 10.00 Fair -- 75.0 68.0 79% NA NA 29.97 1013.1
6:52 am CDT SW 5.8 10.00 Fair -- 70.0 64.9 84% NA NA 29.96 1012.9
4:52 am CDT S 6.9 10.00 Fair -- 68.0 66.0 93% NA NA 29.95 1012.5
3:52 am CDT SE 8.1 10.00 Fair -- 69.0 66.0 90% NA NA 29.95 1012.3
2:52 am CDT S 4.6 10.00 Fair -- 71.0 66.9 87% NA NA 29.95 1012.6
1:52 am CDT S 8.1 10.00 A Few Clouds -- 69.0 66.0 90% NA NA 29.95 1012.6
12:52 am CDT S 5.8 10.00 A Few Clouds -- 71.0 66.0 84% NA NA 29.97 1013.0
11:52 pm CDT S 6.9 10.00 A Few Clouds -- 72.0 66.9 84% NA NA 29.98 1013.3
10:52 pm CDT S 6.9 10.00 A Few Clouds -- 75.0 66.9 76% NA NA 29.97 1013.2
8:52 pm CDT S 6.9 10.00 A Few Clouds -- 79.0 66.9 67% NA NA 29.96 1012.8
7:52 pm CDT S 8.1 10.00 Partly Cloudy -- 87.0 66.9 51% NA 90 29.94 1012.4

Regional Weather Observation


Sundance Airport, OK (KHSD)

Fair
90.0 F

Oklahoma City, Wiley Post Airport, OK (KPWA)

Fair
89.0 F

Oklahoma City, Will Rogers World Airport, OK (KOKC)

A Few Clouds
86.0 F

Guthrie, Guthrie Municipal Airport, OK (KGOK)

Fair
91.0 F

Chickasha, Chickasha Municipal Airport, OK (KCHK)

Fair
91.0 F

Tinker Air Force Base, OK (KTIK)

Fair
87.0 F
Advertise Here

Advertise Here